Location: Carri�res
(48.9069°N, 2.1792°E)
Time: 13:50:13
(UTC+00:00)

ATLAS 5 CENTAUR R/B - Pass Details

Date: 17 January 2021
Orbit: 511 x 1147 km, 63.3° (Epoch: 16 February)

Event Time Altitude Azimuth Distance (km) Brightness Sun altitude
Rises 19:37:30 0° 260° (W) 2,716 5.9 -31.0°
Reaches altitude 10° 19:39:52 10° 274° (W) 1,885 4.9 -31.4°
Enters shadow 19:42:31 24° 311° (NW) 1,271 3.6 -31.8°
